Location: Bottens
(46.6171°N, 6.6605°E)
Time: 13:42:17
(UTC+00:00)

USA 281 - Pass Details

Date: 20 June 2021
Orbit: 1078 x 1081 km, 106.0° (Epoch: 18 July)

Event Time Altitude Azimuth Distance (km) Brightness Sun altitude
Rises 02:08:31 0° 150° (SSE) 3,867 5.9 -11.8°
Reaches altitude 10° 02:11:01 10° 149° (SSE) 2,915 5.3 -11.6°
Maximum altitude 02:17:35 84° 63° (ENE) 1,094 3.3 -10.9°
Drops below altitude 10° 02:24:11 10° 336° (NNW) 2,932 5.9 -10.2°
Sets 02:26:43 0° 336° (NNW) 3,892 6.5 -9.9°
